UAL2203 KIAH-KPHL

Flight info

Callsign UAL2203
Flight time 2h 41m
Altitude 37000
Route MMUGS4 GUSTI Q22 BEARI BBDOL PAATS4
Aircraft B738/M-VGDW/C

Departure

Time 2026-05-06 12:49
Airport George Bush Intercontinental Airport (KIAH)

Arrival

Time 2026-05-06 15:30
Airport Philadelphia International Airport (KPHL)
Time Latitude Longitude Altitude Speed Heading
2026-05-06 12:34 29.98869 -95.35704 105 ft 0 kts 159°
2026-05-06 12:36 29.98868 -95.35704 105 ft 0 kts 159°
2026-05-06 12:39 29.98856 -95.35698 105 ft 5 kts 159°
2026-05-06 12:39 29.98831 -95.35687 105 ft 5 kts 159°
2026-05-06 12:39 29.98807 -95.35707 105 ft 7 kts 242°
2026-05-06 12:39 29.98781 -95.35764 105 ft 6 kts 242°
2026-05-06 12:40 29.98759 -95.35768 105 ft 4 kts 155°
2026-05-06 12:40 29.98753 -95.35765 105 ft 0 kts 153°
2026-05-06 12:42 29.98753 -95.35764 105 ft 0 kts 153°
2026-05-06 12:43 29.98752 -95.35764 105 ft 0 kts 153°
2026-05-06 12:48 29.98751 -95.35764 105 ft 0 kts 153°
2026-05-06 12:48 29.98612 -95.35679 105 ft 58 kts 152°
2026-05-06 12:48 29.98043 -95.35333 105 ft 125 kts 152°
2026-05-06 12:49 29.97115 -95.34772 270 ft 167 kts 152°
2026-05-06 12:49 29.96029 -95.34112 848 ft 187 kts 152°
2026-05-06 12:49 29.94864 -95.33384 1588 ft 190 kts 148°
2026-05-06 12:49 29.93868 -95.32380 2114 ft 194 kts 131°
2026-05-06 12:50 29.93077 -95.31075 2567 ft 203 kts 128°
2026-05-06 12:50 29.92279 -95.29717 3047 ft 212 kts 128°
2026-05-06 12:50 29.91433 -95.28282 3532 ft 221 kts 128°
2026-05-06 12:50 29.90543 -95.26766 3914 ft 236 kts 128°
2026-05-06 12:51 29.89588 -95.25147 4204 ft 255 kts 128°
2026-05-06 12:51 29.88556 -95.23419 4221 ft 267 kts 129°
2026-05-06 12:51 29.87457 -95.21650 4261 ft 274 kts 129°
2026-05-06 12:51 29.86355 -95.19873 4486 ft 271 kts 129°
2026-05-06 12:52 29.85253 -95.18112 4832 ft 272 kts 129°
2026-05-06 12:52 29.84142 -95.16332 5001 ft 275 kts 129°
2026-05-06 12:52 29.83090 -95.14481 5024 ft 278 kts 120°
2026-05-06 12:52 29.82475 -95.12354 5026 ft 281 kts 105°
2026-05-06 12:53 29.82226 -95.10119 5129 ft 282 kts 98°
2026-05-06 12:53 29.82117 -95.07879 5573 ft 287 kts 96°
2026-05-06 12:53 29.82040 -95.05577 6290 ft 289 kts 96°
2026-05-06 12:53 29.81954 -95.03249 6941 ft 293 kts 96°
2026-05-06 12:54 29.81863 -95.00889 7613 ft 294 kts 96°
2026-05-06 12:54 29.81777 -94.98516 8269 ft 300 kts 95°
2026-05-06 12:54 29.81822 -94.96089 8881 ft 307 kts 90°
2026-05-06 12:54 29.81988 -94.93622 9517 ft 311 kts 88°
2026-05-06 12:55 29.82190 -94.91124 10140 ft 316 kts 88°
2026-05-06 12:55 29.82380 -94.88568 10657 ft 326 kts 88°
2026-05-06 12:55 29.82566 -94.85894 10909 ft 344 kts 89°
2026-05-06 12:55 29.82753 -94.83082 11157 ft 362 kts 88°
2026-05-06 12:56 29.82944 -94.80137 11529 ft 373 kts 88°
2026-05-06 12:56 29.83133 -94.77127 12078 ft 379 kts 89°
2026-05-06 12:56 29.83087 -94.74085 12653 ft 381 kts 98°
2026-05-06 12:56 29.82779 -94.71051 13280 ft 384 kts 101°
2026-05-06 12:57 29.82424 -94.68016 13835 ft 390 kts 101°
2026-05-06 12:57 29.82061 -94.64895 14389 ft 395 kts 101°
2026-05-06 12:57 29.81694 -94.61735 14969 ft 400 kts 101°
2026-05-06 12:57 29.81445 -94.59617 15358 ft 403 kts 101°
2026-05-06 12:58 29.81065 -94.56400 15940 ft 408 kts 101°
2026-05-06 12:58 29.80677 -94.53137 16508 ft 413 kts 101°
2026-05-06 12:58 29.80284 -94.49846 17056 ft 418 kts 101°
2026-05-06 12:58 29.79882 -94.46509 17602 ft 423 kts 101°
2026-05-06 12:59 29.79477 -94.43142 18127 ft 427 kts 100°
2026-05-06 12:59 29.79267 -94.39701 18667 ft 434 kts 90°
2026-05-06 12:59 29.79519 -94.36224 19213 ft 438 kts 84°
2026-05-06 12:59 29.79942 -94.32737 19729 ft 442 kts 82°
2026-05-06 13:00 29.80393 -94.29218 20271 ft 445 kts 82°
2026-05-06 13:00 29.80845 -94.25672 20759 ft 450 kts 82°
2026-05-06 13:00 29.81297 -94.22093 21268 ft 453 kts 82°
2026-05-06 13:00 29.81753 -94.18460 21494 ft 464 kts 82°
2026-05-06 13:01 29.82216 -94.14744 21650 ft 475 kts 82°
2026-05-06 13:01 29.82684 -94.10964 22133 ft 476 kts 82°
2026-05-06 13:01 29.83145 -94.07235 22645 ft 477 kts 82°
2026-05-06 13:01 29.83611 -94.03445 23086 ft 480 kts 82°
2026-05-06 13:02 29.84080 -93.99623 23508 ft 482 kts 82°
2026-05-06 13:02 29.84559 -93.95786 23895 ft 486 kts 82°
2026-05-06 13:02 29.85044 -93.91937 24281 ft 489 kts 82°
2026-05-06 13:02 29.85531 -93.88036 24621 ft 493 kts 82°
2026-05-06 13:03 29.86019 -93.84098 24951 ft 497 kts 82°
2026-05-06 13:03 29.86508 -93.80133 25276 ft 501 kts 82°
2026-05-06 13:03 29.86997 -93.76138 25608 ft 504 kts 82°
2026-05-06 13:03 29.87489 -93.72113 25921 ft 508 kts 82°
2026-05-06 13:04 29.87980 -93.68068 26224 ft 512 kts 82°
2026-05-06 13:04 29.88475 -93.63987 26528 ft 515 kts 83°
2026-05-06 13:04 29.88964 -93.59940 26805 ft 519 kts 83°
2026-05-06 13:04 29.89461 -93.55814 27093 ft 522 kts 83°
2026-05-06 13:05 29.89961 -93.51647 27381 ft 525 kts 83°
2026-05-06 13:05 29.90461 -93.47469 27648 ft 528 kts 83°
2026-05-06 13:05 29.90964 -93.43259 27905 ft 531 kts 83°
2026-05-06 13:05 29.91467 -93.39034 28158 ft 534 kts 83°
2026-05-06 13:06 29.91972 -93.34777 28412 ft 537 kts 83°
2026-05-06 13:06 29.92477 -93.30510 28671 ft 539 kts 83°
2026-05-06 13:06 29.92991 -93.26203 28901 ft 542 kts 83°
2026-05-06 13:06 29.93510 -93.21889 29132 ft 545 kts 83°
2026-05-06 13:07 29.94023 -93.17552 29362 ft 547 kts 83°
2026-05-06 13:07 29.94532 -93.13186 29588 ft 550 kts 83°
2026-05-06 13:07 29.95032 -93.08871 29884 ft 550 kts 83°
2026-05-06 13:07 29.95537 -93.04499 30211 ft 550 kts 83°
2026-05-06 13:08 29.96040 -93.00126 30580 ft 549 kts 83°
2026-05-06 13:08 29.96542 -92.95755 30876 ft 550 kts 83°
2026-05-06 13:08 29.97050 -92.91385 31218 ft 549 kts 82°
2026-05-06 13:08 29.97712 -92.87044 31577 ft 549 kts 78°
2026-05-06 13:09 29.98524 -92.82737 31865 ft 549 kts 77°
2026-05-06 13:09 29.99398 -92.78447 32201 ft 549 kts 76°
2026-05-06 13:09 30.00262 -92.74165 32557 ft 548 kts 76°
2026-05-06 13:10 30.01975 -92.65500 32895 ft 554 kts 77°
2026-05-06 13:10 30.02817 -92.61172 33246 ft 553 kts 77°
2026-05-06 13:10 30.03654 -92.56846 33616 ft 551 kts 77°
2026-05-06 13:10 30.04486 -92.52523 33879 ft 552 kts 77°
2026-05-06 13:11 30.05325 -92.48243 34166 ft 552 kts 76°
2026-05-06 13:11 30.06164 -92.43937 34540 ft 549 kts 77°
2026-05-06 13:11 30.06996 -92.39638 34937 ft 547 kts 76°
2026-05-06 13:11 30.07822 -92.35351 35233 ft 546 kts 77°
2026-05-06 13:12 30.08645 -92.31063 35551 ft 545 kts 77°
2026-05-06 13:12 30.09461 -92.26792 35851 ft 544 kts 77°
2026-05-06 13:12 30.10275 -92.22523 36130 ft 544 kts 77°
2026-05-06 13:12 30.11084 -92.18269 36467 ft 542 kts 77°
2026-05-06 13:13 30.11889 -92.14027 36794 ft 540 kts 77°
2026-05-06 13:13 30.12690 -92.09791 36939 ft 542 kts 77°
2026-05-06 13:13 30.13496 -92.05522 36945 ft 543 kts 77°
2026-05-06 13:14 30.15098 -91.97007 36950 ft 541 kts 77°
2026-05-06 13:14 30.16684 -91.88543 36950 ft 538 kts 77°
2026-05-06 13:15 30.18264 -91.80082 36951 ft 539 kts 77°
2026-05-06 13:15 30.19841 -91.71604 36953 ft 540 kts 77°
2026-05-06 13:16 30.21405 -91.63167 36957 ft 540 kts 77°
2026-05-06 13:16 30.22980 -91.54631 36960 ft 540 kts 77°
2026-05-06 13:17 30.24533 -91.46188 36965 ft 540 kts 77°
2026-05-06 13:17 30.26089 -91.37694 36967 ft 541 kts 77°
2026-05-06 13:18 30.27643 -91.29178 36969 ft 540 kts 77°
2026-05-06 13:18 30.29193 -91.20654 36972 ft 540 kts 77°
2026-05-06 13:19 30.30722 -91.12208 36973 ft 540 kts 77°
2026-05-06 13:19 30.32257 -91.03697 36977 ft 540 kts 77°
2026-05-06 13:20 30.33788 -90.95181 36976 ft 539 kts 77°
2026-05-06 13:20 30.35311 -90.86671 36978 ft 539 kts 77°
2026-05-06 13:21 30.36818 -90.78217 36981 ft 539 kts 77°
2026-05-06 13:21 30.38326 -90.69724 36984 ft 538 kts 77°
2026-05-06 13:22 30.39829 -90.61226 36987 ft 538 kts 77°
2026-05-06 13:22 30.41339 -90.52736 36988 ft 537 kts 77°
2026-05-06 13:23 30.42833 -90.44260 36989 ft 537 kts 77°
2026-05-06 13:23 30.44311 -90.35772 36990 ft 536 kts 77°
2026-05-06 13:24 30.45778 -90.27297 36990 ft 536 kts 77°
2026-05-06 13:24 30.47269 -90.18828 36990 ft 535 kts 75°
2026-05-06 13:25 30.49251 -90.10599 36992 ft 533 kts 71°
2026-05-06 13:25 30.51421 -90.02373 36992 ft 533 kts 71°
2026-05-06 13:26 30.53550 -89.94119 36997 ft 533 kts 71°
2026-05-06 13:26 30.55651 -89.85868 36998 ft 533 kts 71°
2026-05-06 13:27 30.57752 -89.77618 37000 ft 533 kts 71°
2026-05-06 13:27 30.59855 -89.69362 37001 ft 534 kts 71°
2026-05-06 13:28 30.61932 -89.61139 37001 ft 533 kts 71°
2026-05-06 13:28 30.64012 -89.52864 37002 ft 534 kts 71°
2026-05-06 13:29 30.66087 -89.44571 37002 ft 534 kts 71°
2026-05-06 13:29 30.68155 -89.36275 37004 ft 534 kts 71°
2026-05-06 13:30 30.70218 -89.27972 37004 ft 535 kts 71°
2026-05-06 13:30 30.72274 -89.19668 37005 ft 534 kts 71°
2026-05-06 13:31 30.74326 -89.11361 37004 ft 534 kts 71°
2026-05-06 13:31 30.76358 -89.03105 37001 ft 534 kts 71°
2026-05-06 13:32 30.78397 -88.94799 37000 ft 534 kts 71°
2026-05-06 13:32 30.80430 -88.86488 37005 ft 534 kts 71°
2026-05-06 13:33 30.82457 -88.78178 37008 ft 534 kts 71°
2026-05-06 13:33 30.84489 -88.69879 37010 ft 533 kts 71°
2026-05-06 13:34 30.86512 -88.61566 37011 ft 533 kts 71°
2026-05-06 13:34 30.88516 -88.53253 37019 ft 533 kts 71°
2026-05-06 13:35 30.90513 -88.44931 37027 ft 533 kts 71°
2026-05-06 13:35 30.92771 -88.36727 37028 ft 529 kts 64°
2026-05-06 13:36 30.96008 -88.29164 37030 ft 523 kts 55°
2026-05-06 13:36 30.99695 -88.21847 37032 ft 523 kts 54°
2026-05-06 13:37 31.03336 -88.14493 37035 ft 524 kts 54°
2026-05-06 13:37 31.06953 -88.07098 37036 ft 525 kts 54°
2026-05-06 13:38 31.10566 -87.99692 37037 ft 525 kts 54°
2026-05-06 13:38 31.14180 -87.92278 37043 ft 524 kts 54°
2026-05-06 13:39 31.17759 -87.84936 37043 ft 522 kts 54°
2026-05-06 13:39 31.21336 -87.77533 37048 ft 524 kts 54°
2026-05-06 13:40 31.24912 -87.70100 37053 ft 524 kts 54°
2026-05-06 13:40 31.28474 -87.62677 37056 ft 524 kts 54°
2026-05-06 13:41 31.32407 -87.55580 37058 ft 515 kts 44°
2026-05-06 13:41 31.36979 -87.49171 37061 ft 511 kts 41°
2026-05-06 13:42 31.41593 -87.42829 37063 ft 512 kts 41°
2026-05-06 13:42 31.46163 -87.36502 37068 ft 512 kts 42°
2026-05-06 13:43 31.50745 -87.30128 37069 ft 511 kts 41°
2026-05-06 13:43 31.55323 -87.23769 37070 ft 510 kts 41°
2026-05-06 13:44 31.59132 -87.18478 37070 ft 511 kts 41°
2026-05-06 13:44 31.63740 -87.12054 37070 ft 510 kts 41°
2026-05-06 13:45 31.68290 -87.05693 37071 ft 509 kts 41°
2026-05-06 13:45 31.75087 -86.96160 37075 ft 509 kts 41°
2026-05-06 13:46 31.79621 -86.89787 37078 ft 508 kts 41°
2026-05-06 13:46 31.84155 -86.83402 37078 ft 508 kts 41°
2026-05-06 13:47 31.88671 -86.77031 37079 ft 507 kts 41°
2026-05-06 13:47 31.93181 -86.70656 37079 ft 506 kts 41°
2026-05-06 13:48 31.97684 -86.64282 37079 ft 506 kts 41°
2026-05-06 13:48 32.02186 -86.57895 37078 ft 507 kts 41°
2026-05-06 13:49 32.06700 -86.51485 37077 ft 508 kts 41°
2026-05-06 13:49 32.11171 -86.45122 37075 ft 506 kts 41°
2026-05-06 13:50 32.15657 -86.38728 37073 ft 506 kts 41°
2026-05-06 13:50 32.20147 -86.32319 37072 ft 506 kts 41°
2026-05-06 13:51 32.24631 -86.25906 37073 ft 506 kts 41°
2026-05-06 13:51 32.29108 -86.19490 37066 ft 506 kts 41°
2026-05-06 13:52 32.33589 -86.13060 37063 ft 506 kts 41°
2026-05-06 13:52 32.38054 -86.06642 37065 ft 506 kts 41°
2026-05-06 13:53 32.42525 -86.00202 37068 ft 507 kts 41°
2026-05-06 13:53 32.46995 -85.93754 37072 ft 505 kts 41°
2026-05-06 13:54 32.51419 -85.87362 37077 ft 505 kts 41°
2026-05-06 13:54 32.55872 -85.80915 37084 ft 505 kts 41°
2026-05-06 13:55 32.60327 -85.74456 37090 ft 505 kts 41°
2026-05-06 13:55 32.64773 -85.67998 37099 ft 506 kts 41°
2026-05-06 13:56 32.69232 -85.61509 37104 ft 508 kts 41°
2026-05-06 13:56 32.73658 -85.55058 37105 ft 507 kts 41°
2026-05-06 13:57 32.78110 -85.48557 37104 ft 507 kts 41°
2026-05-06 13:57 32.82566 -85.42038 37102 ft 507 kts 41°
2026-05-06 13:58 32.87014 -85.35521 37098 ft 508 kts 41°
2026-05-06 13:58 32.91461 -85.28992 37094 ft 508 kts 41°
2026-05-06 13:59 32.95904 -85.22458 37092 ft 508 kts 41°
2026-05-06 13:59 33.00354 -85.15903 37090 ft 508 kts 41°
2026-05-06 14:00 33.04793 -85.09353 37090 ft 508 kts 41°
2026-05-06 14:00 33.09246 -85.02768 37090 ft 509 kts 41°
2026-05-06 14:01 33.13661 -84.96231 37091 ft 509 kts 41°
2026-05-06 14:01 33.18101 -84.89642 37091 ft 508 kts 41°
2026-05-06 14:02 33.22521 -84.83073 37091 ft 507 kts 41°
2026-05-06 14:02 33.26938 -84.76497 37090 ft 507 kts 41°
2026-05-06 14:03 33.31357 -84.69904 37088 ft 508 kts 41°
2026-05-06 14:03 33.35746 -84.63345 37080 ft 508 kts 41°
2026-05-06 14:04 33.40157 -84.56742 37072 ft 508 kts 41°
2026-05-06 14:04 33.44570 -84.50123 37068 ft 508 kts 41°
2026-05-06 14:05 33.48981 -84.43495 37064 ft 508 kts 41°
2026-05-06 14:05 33.53391 -84.36857 37062 ft 508 kts 41°
2026-05-06 14:06 33.57769 -84.30256 37064 ft 509 kts 41°
2026-05-06 14:06 33.62163 -84.23616 37072 ft 508 kts 41°
2026-05-06 14:07 33.66559 -84.16962 37067 ft 507 kts 41°
2026-05-06 14:07 33.70946 -84.10328 37066 ft 507 kts 41°
2026-05-06 14:08 33.75342 -84.03667 37066 ft 507 kts 41°
2026-05-06 14:08 33.79690 -83.97042 37067 ft 508 kts 41°
2026-05-06 14:09 33.84063 -83.90360 37072 ft 508 kts 41°
2026-05-06 14:09 33.88434 -83.83674 37073 ft 508 kts 41°
2026-05-06 14:10 33.92725 -83.76883 37075 ft 511 kts 44°
2026-05-06 14:10 33.96941 -83.69994 37079 ft 511 kts 44°
2026-05-06 14:11 34.01160 -83.63094 37080 ft 510 kts 44°
2026-05-06 14:11 34.05353 -83.56228 37077 ft 511 kts 44°
2026-05-06 14:12 34.09574 -83.49312 37075 ft 515 kts 44°
2026-05-06 14:12 34.13835 -83.42330 37062 ft 517 kts 44°
2026-05-06 14:13 34.18125 -83.35355 37065 ft 516 kts 44°
2026-05-06 14:13 34.22377 -83.28385 37065 ft 515 kts 44°
2026-05-06 14:14 34.26635 -83.21373 37063 ft 518 kts 44°
2026-05-06 14:14 34.30877 -83.14386 37061 ft 518 kts 44°
2026-05-06 14:15 34.35132 -83.07374 37061 ft 516 kts 44°
2026-05-06 14:15 34.39366 -83.00348 37056 ft 516 kts 44°
2026-05-06 14:16 34.43580 -82.93367 37047 ft 509 kts 44°
2026-05-06 14:16 34.47771 -82.86404 37047 ft 512 kts 44°
2026-05-06 14:17 34.51930 -82.79468 37040 ft 510 kts 44°
2026-05-06 14:17 34.56135 -82.72451 37043 ft 512 kts 44°
2026-05-06 14:18 34.60296 -82.65486 37042 ft 513 kts 44°
2026-05-06 14:18 34.64495 -82.58474 37042 ft 513 kts 44°
2026-05-06 14:19 34.68678 -82.51436 37046 ft 513 kts 44°
2026-05-06 14:19 34.72863 -82.44408 37049 ft 512 kts 44°
2026-05-06 14:20 34.77027 -82.37371 37051 ft 513 kts 45°
2026-05-06 14:20 34.81199 -82.30334 37048 ft 513 kts 44°
2026-05-06 14:21 34.85366 -82.23302 37045 ft 515 kts 44°
2026-05-06 14:21 34.89562 -82.16224 37039 ft 512 kts 44°
2026-05-06 14:22 34.93721 -82.09143 37040 ft 515 kts 45°
2026-05-06 14:22 34.97895 -82.02021 37042 ft 515 kts 44°
2026-05-06 14:23 35.02060 -81.94899 37041 ft 514 kts 44°
2026-05-06 14:23 35.06269 -81.87894 37037 ft 508 kts 42°
2026-05-06 14:24 35.10543 -81.81041 37038 ft 505 kts 42°
2026-05-06 14:24 35.14793 -81.74196 37036 ft 507 kts 43°
2026-05-06 14:25 35.19019 -81.67348 37032 ft 508 kts 43°
2026-05-06 14:25 35.23277 -81.60444 37031 ft 508 kts 43°
2026-05-06 14:26 35.27535 -81.53550 37027 ft 507 kts 42°
2026-05-06 14:26 35.31792 -81.46650 37031 ft 510 kts 43°
2026-05-06 14:27 35.36053 -81.39696 37030 ft 510 kts 43°
2026-05-06 14:27 35.40318 -81.32766 37028 ft 509 kts 42°
2026-05-06 14:28 35.43839 -81.27017 37026 ft 504 kts 43°
2026-05-06 14:28 35.48013 -81.20150 37031 ft 503 kts 43°
2026-05-06 14:29 35.52195 -81.13258 37028 ft 504 kts 43°
2026-05-06 14:29 35.56385 -81.06349 37029 ft 505 kts 43°
2026-05-06 14:30 35.60585 -80.99410 37028 ft 505 kts 43°
2026-05-06 14:30 35.64757 -80.92497 37031 ft 501 kts 42°
2026-05-06 14:31 35.68882 -80.85668 37031 ft 501 kts 42°
2026-05-06 14:31 35.73061 -80.78699 37030 ft 508 kts 43°
2026-05-06 14:32 35.77253 -80.71716 37029 ft 503 kts 43°
2026-05-06 14:32 35.81426 -80.64836 37028 ft 500 kts 42°
2026-05-06 14:33 35.85562 -80.57940 37031 ft 500 kts 43°
2026-05-06 14:33 35.89693 -80.51022 37029 ft 502 kts 43°
2026-05-06 14:34 35.93814 -80.44091 37027 ft 507 kts 43°
2026-05-06 14:34 35.97997 -80.37052 37026 ft 507 kts 43°
2026-05-06 14:35 36.02166 -80.30102 37021 ft 501 kts 43°
2026-05-06 14:35 36.06314 -80.23136 37022 ft 505 kts 43°
2026-05-06 14:36 36.10472 -80.16118 37018 ft 504 kts 43°
2026-05-06 14:36 36.14601 -80.09136 37008 ft 502 kts 43°
2026-05-06 14:37 36.18693 -80.02202 37004 ft 501 kts 43°
2026-05-06 14:37 36.22813 -79.95230 37005 ft 502 kts 43°
2026-05-06 14:38 36.26937 -79.88197 37003 ft 504 kts 43°
2026-05-06 14:38 36.31053 -79.81178 37005 ft 502 kts 43°
2026-05-06 14:39 36.35150 -79.74176 37006 ft 502 kts 43°
2026-05-06 14:39 36.39236 -79.67195 37008 ft 502 kts 43°
2026-05-06 14:40 36.43365 -79.60168 37007 ft 504 kts 43°
2026-05-06 14:40 36.47481 -79.53114 37008 ft 505 kts 43°
2026-05-06 14:41 36.51623 -79.46011 37004 ft 507 kts 43°
2026-05-06 14:41 36.55736 -79.38918 37003 ft 507 kts 43°
2026-05-06 14:42 36.59850 -79.31820 37000 ft 504 kts 44°
2026-05-06 14:42 36.63942 -79.24747 37000 ft 502 kts 43°
2026-05-06 14:43 36.68046 -79.17670 37002 ft 506 kts 44°
2026-05-06 14:43 36.72159 -79.10511 37005 ft 509 kts 44°
2026-05-06 14:44 36.76244 -79.03390 37005 ft 504 kts 44°
2026-05-06 14:45 36.82373 -78.92667 36998 ft 508 kts 44°
2026-05-06 14:45 36.86454 -78.85463 36995 ft 506 kts 44°
2026-05-06 14:46 36.90518 -78.78286 36995 ft 504 kts 44°
2026-05-06 14:46 36.94567 -78.71100 36999 ft 506 kts 44°
2026-05-06 14:47 36.98600 -78.63911 36998 ft 509 kts 45°
2026-05-06 14:47 37.02683 -78.56674 36996 ft 506 kts 44°
2026-05-06 14:48 37.06745 -78.49497 36987 ft 504 kts 44°
2026-05-06 14:48 37.10782 -78.42302 36982 ft 505 kts 45°
2026-05-06 14:49 37.14819 -78.35072 36985 ft 511 kts 45°
2026-05-06 14:49 37.19022 -78.27936 36973 ft 501 kts 38°
2026-05-06 14:49 37.21381 -78.24790 36975 ft 490 kts 32°
2026-05-06 14:50 37.23911 -78.22009 36975 ft 479 kts 27°
2026-05-06 14:50 37.29221 -78.17005 36977 ft 479 kts 24°
2026-05-06 14:51 37.34583 -78.12009 36978 ft 479 kts 24°
2026-05-06 14:51 37.39938 -78.07011 36974 ft 478 kts 24°
2026-05-06 14:52 37.45289 -78.02004 36969 ft 479 kts 25°
2026-05-06 14:52 37.50593 -77.96994 36964 ft 478 kts 25°
2026-05-06 14:53 37.55909 -77.91953 36977 ft 481 kts 25°
2026-05-06 14:53 37.61290 -77.86839 36985 ft 485 kts 25°
2026-05-06 14:54 37.66679 -77.81755 36984 ft 481 kts 25°
2026-05-06 14:54 37.72029 -77.76708 36981 ft 479 kts 25°
2026-05-06 14:55 37.77386 -77.71615 36971 ft 484 kts 25°
2026-05-06 14:55 37.82756 -77.66520 36974 ft 479 kts 25°
2026-05-06 14:56 37.88052 -77.61445 36974 ft 481 kts 25°
2026-05-06 14:56 37.93401 -77.56296 36969 ft 482 kts 25°
2026-05-06 14:57 37.98729 -77.51167 36964 ft 480 kts 25°
2026-05-06 14:57 38.04028 -77.46044 36960 ft 482 kts 25°
2026-05-06 14:58 38.09413 -77.40950 36954 ft 478 kts 22°
2026-05-06 14:58 38.14951 -77.36342 36947 ft 473 kts 20°
2026-05-06 14:59 38.20461 -77.31748 36946 ft 474 kts 21°
2026-05-06 14:59 38.25950 -77.27090 36943 ft 474 kts 21°
2026-05-06 15:00 38.31443 -77.22422 36941 ft 476 kts 21°
2026-05-06 15:00 38.36912 -77.17712 36937 ft 480 kts 24°
2026-05-06 15:01 38.42040 -77.12033 36942 ft 497 kts 34°
2026-05-06 15:01 38.46854 -77.05663 36940 ft 497 kts 35°
2026-05-06 15:02 38.51641 -76.99386 36935 ft 490 kts 34°
2026-05-06 15:02 38.56377 -76.93182 36657 ft 491 kts 34°
2026-05-06 15:02 38.58748 -76.90070 36141 ft 487 kts 35°
2026-05-06 15:03 38.61112 -76.86963 35486 ft 488 kts 35°
2026-05-06 15:03 38.63480 -76.83846 34820 ft 489 kts 36°
2026-05-06 15:03 38.65864 -76.80706 34142 ft 490 kts 36°
2026-05-06 15:03 38.68158 -76.77469 33624 ft 494 kts 43°
2026-05-06 15:04 38.70110 -76.73816 33122 ft 501 kts 52°
2026-05-06 15:04 38.71663 -76.69795 32620 ft 505 kts 61°
2026-05-06 15:04 38.72812 -76.65538 32130 ft 506 kts 68°
2026-05-06 15:04 38.73693 -76.61178 31644 ft 505 kts 72°
2026-05-06 15:05 38.74467 -76.56863 31169 ft 501 kts 72°
2026-05-06 15:05 38.75284 -76.52484 30690 ft 498 kts 72°
2026-05-06 15:05 38.76108 -76.48240 30228 ft 494 kts 72°
2026-05-06 15:05 38.76951 -76.43994 29767 ft 490 kts 72°
2026-05-06 15:06 38.77817 -76.39781 29310 ft 486 kts 71°
2026-05-06 15:06 38.78689 -76.35606 28853 ft 483 kts 72°
2026-05-06 15:06 38.79548 -76.31458 28396 ft 480 kts 72°
2026-05-06 15:06 38.80395 -76.27334 27941 ft 476 kts 72°
2026-05-06 15:07 38.81232 -76.23241 27486 ft 473 kts 73°
2026-05-06 15:07 38.82062 -76.19168 27031 ft 470 kts 73°
2026-05-06 15:07 38.82885 -76.15120 26577 ft 468 kts 73°
2026-05-06 15:07 38.83702 -76.11097 26124 ft 465 kts 73°
2026-05-06 15:08 38.84514 -76.07098 25672 ft 462 kts 74°
2026-05-06 15:08 38.85321 -76.03119 25219 ft 460 kts 74°
2026-05-06 15:08 38.86127 -75.99163 24766 ft 457 kts 74°
2026-05-06 15:08 38.86922 -75.95225 24317 ft 454 kts 75°
2026-05-06 15:09 38.87708 -75.91310 23870 ft 451 kts 75°
2026-05-06 15:09 38.88601 -75.87518 23424 ft 448 kts 66°
2026-05-06 15:09 38.90080 -75.84030 22996 ft 441 kts 53°
2026-05-06 15:09 38.92065 -75.81074 22503 ft 436 kts 41°
2026-05-06 15:10 38.94355 -75.78569 22042 ft 430 kts 33°
2026-05-06 15:10 38.96801 -75.76375 21591 ft 427 kts 30°
2026-05-06 15:10 38.99262 -75.74250 21145 ft 425 kts 31°
2026-05-06 15:10 39.01660 -75.72041 20702 ft 424 kts 33°
2026-05-06 15:11 39.04079 -75.69895 20259 ft 419 kts 26°
2026-05-06 15:11 39.06704 -75.68347 19817 ft 411 kts 13°
2026-05-06 15:11 39.09465 -75.67532 19366 ft 404 kts
2026-05-06 15:11 39.12217 -75.67074 18929 ft 401 kts
2026-05-06 15:12 39.14986 -75.66781 18493 ft 398 kts 359°
2026-05-06 15:12 39.17744 -75.66505 18064 ft 397 kts 359°
2026-05-06 15:12 39.20496 -75.66219 17637 ft 396 kts 360°
2026-05-06 15:12 39.23246 -75.65923 17215 ft 395 kts 360°
2026-05-06 15:13 39.25978 -75.65563 16794 ft 396 kts
2026-05-06 15:13 39.28663 -75.64663 16375 ft 399 kts 16°
2026-05-06 15:13 39.31196 -75.63178 15959 ft 401 kts 26°
2026-05-06 15:13 39.33510 -75.61222 15554 ft 401 kts 34°
2026-05-06 15:14 39.35014 -75.59756 15279 ft 400 kts 35°
2026-05-06 15:14 39.37172 -75.57562 14874 ft 399 kts 42°
2026-05-06 15:14 39.38979 -75.54854 14464 ft 398 kts 56°
2026-05-06 15:14 39.40334 -75.51745 14054 ft 395 kts 66°
2026-05-06 15:15 39.41375 -75.48472 13650 ft 392 kts 72°
2026-05-06 15:15 39.42258 -75.45149 13253 ft 390 kts 73°
2026-05-06 15:15 39.43178 -75.41856 12857 ft 389 kts 72°
2026-05-06 15:15 39.44140 -75.38589 12462 ft 388 kts 71°
2026-05-06 15:16 39.45107 -75.35341 12070 ft 386 kts 71°
2026-05-06 15:16 39.46343 -75.32254 11672 ft 388 kts 58°
2026-05-06 15:16 39.48087 -75.29596 11264 ft 388 kts 44°
2026-05-06 15:16 39.50164 -75.27378 10867 ft 386 kts 35°
2026-05-06 15:17 39.52410 -75.25499 10585 ft 381 kts 30°
2026-05-06 15:17 39.54674 -75.23764 10362 ft 375 kts 30°
2026-05-06 15:17 39.56875 -75.21980 10148 ft 370 kts 31°
2026-05-06 15:17 39.59023 -75.20176 9955 ft 364 kts 31°
2026-05-06 15:18 39.61085 -75.18418 9909 ft 353 kts 32°
2026-05-06 15:18 39.63101 -75.16705 9900 ft 340 kts 32°
2026-05-06 15:18 39.65038 -75.15051 9892 ft 328 kts 32°
2026-05-06 15:18 39.66924 -75.13435 9735 ft 322 kts 32°
2026-05-06 15:19 39.68784 -75.11841 9496 ft 318 kts 32°
2026-05-06 15:19 39.70628 -75.10260 9205 ft 317 kts 32°
2026-05-06 15:19 39.72446 -75.08644 8914 ft 316 kts 36°
2026-05-06 15:19 39.74117 -75.06784 8611 ft 315 kts 44°
2026-05-06 15:20 39.75616 -75.04710 8324 ft 313 kts 49°
2026-05-06 15:20 39.77045 -75.02578 8040 ft 312 kts 49°
2026-05-06 15:20 39.78470 -75.00492 7731 ft 312 kts 48°
2026-05-06 15:20 39.79916 -74.98397 7462 ft 310 kts 48°
2026-05-06 15:21 39.81345 -74.96351 7364 ft 301 kts 48°
2026-05-06 15:21 39.82697 -74.94325 7252 ft 292 kts 54°
2026-05-06 15:21 39.83703 -74.92062 7036 ft 287 kts 68°
2026-05-06 15:21 39.84380 -74.89655 6871 ft 278 kts 76°
2026-05-06 15:22 39.84853 -74.87249 6707 ft 272 kts 78°
2026-05-06 15:22 39.85783 -74.85112 6391 ft 276 kts 44°
2026-05-06 15:22 39.87414 -74.83933 6087 ft 265 kts
2026-05-06 15:22 39.89169 -74.84015 5854 ft 244 kts 339°
2026-05-06 15:23 39.90734 -74.84681 5777 ft 231 kts 332°
2026-05-06 15:23 39.92176 -74.85411 5651 ft 220 kts 326°
2026-05-06 15:23 39.93219 -74.86630 5387 ft 193 kts 286°
2026-05-06 15:23 39.93482 -74.88249 5229 ft 178 kts 265°
2026-05-06 15:24 39.93431 -74.89865 4976 ft 180 kts 258°
2026-05-06 15:24 39.93256 -74.91500 4726 ft 183 kts 255°
2026-05-06 15:24 39.93057 -74.93148 4477 ft 183 kts 256°
2026-05-06 15:24 39.92857 -74.94771 4231 ft 180 kts 254°
2026-05-06 15:25 39.92621 -74.96344 3998 ft 173 kts 252°
2026-05-06 15:25 39.92358 -74.97849 3767 ft 168 kts 251°
2026-05-06 15:25 39.92083 -74.99318 3546 ft 165 kts 250°
2026-05-06 15:25 39.91803 -75.00770 3329 ft 164 kts 250°
2026-05-06 15:26 39.91520 -75.02215 3111 ft 166 kts 250°
2026-05-06 15:26 39.91229 -75.03689 2894 ft 168 kts 249°
2026-05-06 15:26 39.90938 -75.05153 2673 ft 166 kts 249°
2026-05-06 15:26 39.90649 -75.06607 2448 ft 167 kts 249°
2026-05-06 15:27 39.90358 -75.08065 2229 ft 165 kts 250°
2026-05-06 15:27 39.90067 -75.09527 2007 ft 167 kts 250°
2026-05-06 15:27 39.89780 -75.10970 1791 ft 167 kts 250°
2026-05-06 15:27 39.89483 -75.12454 1564 ft 168 kts 250°
2026-05-06 15:28 39.89195 -75.13902 1337 ft 160 kts 250°
2026-05-06 15:28 39.88925 -75.15254 1154 ft 145 kts 250°
2026-05-06 15:28 39.88681 -75.16481 949 ft 138 kts 250°
2026-05-06 15:28 39.88441 -75.17685 770 ft 135 kts 250°
2026-05-06 15:29 39.88207 -75.18855 591 ft 132 kts 250°
2026-05-06 15:29 39.87977 -75.20008 416 ft 132 kts 250°
2026-05-06 15:29 39.87745 -75.21172 252 ft 134 kts 250°
2026-05-06 15:29 39.87503 -75.22385 80 ft 140 kts 250°
2026-05-06 15:30 39.87268 -75.23548 44 ft 114 kts 253°
2026-05-06 15:30 39.87151 -75.24169 44 ft 37 kts 262°
2026-05-06 15:30 39.87200 -75.24377 44 ft 14 kts 288°
2026-05-06 15:30 39.87203 -75.24483 44 ft 13 kts 253°
2026-05-06 15:31 39.87178 -75.24601 44 ft 13 kts 255°
2026-05-06 15:31 39.87195 -75.24662 44 ft 10 kts 351°
2026-05-06 15:31 39.87264 -75.24651 44 ft 9 kts 75°
2026-05-06 15:32 39.87300 -75.24450 44 ft 12 kts 72°
2026-05-06 15:32 39.87332 -75.24313 44 ft 19 kts 73°
2026-05-06 15:32 39.87372 -75.24143 44 ft 20 kts 74°
2026-05-06 15:32 39.87398 -75.23970 44 ft 14 kts 90°
2026-05-06 15:33 39.87401 -75.23939 44 ft 0 kts 74°
2026-05-06 15:33 39.87402 -75.23939 44 ft 0 kts 74°
2026-05-06 15:35 39.87402 -75.23938 44 ft 1 kts 74°
2026-05-06 15:35 39.87411 -75.23898 44 ft 9 kts 74°
2026-05-06 15:35 39.87441 -75.23784 44 ft 18 kts 52°
2026-05-06 15:35 39.87544 -75.23681 44 ft 19 kts 10°
2026-05-06 15:36 39.87634 -75.23757 44 ft 16 kts 298°
2026-05-06 15:36 39.87677 -75.23871 44 ft 6 kts 268°
2026-05-06 15:36 39.87654 -75.23914 44 ft 7 kts 229°
2026-05-06 15:36 39.87647 -75.23923 44 ft 0 kts 230°